Regional Weather Roundup
Issued by NWS Grand Forks, ND

Home | Current Version | Previous Version | Graphics & Text | Print | Product List | Glossary On
Versions: 1 2 3 4 5 6 7 8 9 10 11 12 13 14 15 16 17 18 19 20 21 22 23 24 25 26 27 28 29 30 31 32 33 34 35 36 37 38 39 40 41 42 43 44 45 46 47 48 49 50
000
ASUS43 KFGF 211710
RWRFGF
PRAIRIE TO PINES  WEATHER ROUNDUP
NATIONAL WEATHER SERVICE EASTERN NORTH DAKOTA/GRAND FORKS ND
1100 AM CST SUN DEC 21 2014

 **SATELLITE DATA USED TO AUGMENT SKY COVER AT AUTOMATED STATIONS**
 *****  WEATHER ACROSS EASTERN NORTH DAKOTA  *****

CITY           SKY/WX    TMP DP  RH WIND       PRES   REMARKS
GRAND FORKS    CLOUDY    31  29  92 S17       29.68S WCI  19
GRAND FRKS AFB CLOUDY    30  30 100 S15       29.66F WCI  19
GRAND FRKS NWS   N/A     30 N/A N/A S14         N/A  WCI  20
DEVILS LAKE    CLOUDY    21  12  68 SE9       29.58F WCI  11
FARGO          CLOUDY    33  29  85 S14G24    29.69F FOG     WCI  23
WAHPETON ARPT  CLOUDY    32  30  93 SE13      29.71F WCI  22
$$

 ***** WEATHER ACROSS CENTRAL AND WESTERN NORTH DAKOTA  *****

CITY           SKY/WX    TMP DP  RH WIND       PRES   REMARKS
BISMARCK       SUNNY     29  27  92 SE7       29.54F WCI  22
MINOT          PTSUNNY   23  19  85 CALM      29.49F
JAMESTOWN      FOG       30  27  88 SE14      29.60F VSB 1/2 WCI  19
MINOT AFB      SUNNY     20  20  98 E7        29.49  WCI  12
GARRISON         N/A     28  26  92 CALM      29.50F
WILLISTON      CLOUDY    24  21  88 CALM      29.42F
DICKINSON      SUNNY     34  27  75 S14       29.41F WCI  25
HETTINGER      SUNNY     33  27  78 SE5       29.47F
$$

 *****  OTHER AIRPORT OBSERVATIONS IN OUR AREA  *****

CITY           SKY/WX    TMP DP  RH WIND       PRES   REMARKS
WALHALLA         N/A     27  27 100 S10       29.64S WCI  17
GRAFTON AIRPOR NOT AVBL
VALLEY CITY AR FOG       28  28 100 S10       29.64F VSB 1/4 WCI  19
CANDO          FAIR      23  23 100 SE6       29.59F WCI  16
CAVALIER APRT  CLOUDY    27  27 100 S13       29.65S FOG     WCI  16
GWINNER        PTSUNNY   32  32 100 MISG      29.67F
ROLLA          FAIR      19  19 100 S16G30    29.57S WCI   5
 ***** THE ABOVE OBSERVATIONS ARE NON NWS ARE NOT QUALITY
       CONTROLLED AND MAY MIS-REPORT RAIN FOR SNOW...
$$

  *****  WEATHER ACROSS NORTHERN MINNESOTA  *****

CITY           SKY/WX    TMP DP  RH WIND       PRES   REMARKS
FLAG ISLAND    CLOUDY    28  28 100 SE16      29.70F FOG     WCI  17
WARROAD        SNOW      30  27  86 S6        29.71F VSB 1/2 WCI  24
ROSEAU         CLOUDY    30  27  86 S14       29.70F FOG     WCI  20
HALLOCK        CLOUDY    30  30 100 CALM      29.67S FOG
THF RVR FALLS  CLOUDY    30  28  93 S16       29.70F WCI  19
BAUDETTE       LGT SNOW  31  28  89 S9        29.72F FOG     WCI  23
WASKISH        CLOUDY    30  30 100 CALM      29.74F
CROOKSTON      CLOUDY    30  28  93 S20       29.71F FOG     WCI  18
STEPHEN NDAWN    N/A     30  30 100 S16         N/A  WCI  19
GREENBUSH NDAW   N/A     30  28  93 S1          N/A
$$
  *****  WEATHER ACROSS CENTRAL AND WEST MINNESOTA  *****

CITY           SKY/WX    TMP DP  RH WIND       PRES   REMARKS
FOSSTON        CLOUDY    28  27  93 S14       29.71F FOG     WCI  17
BEMIDJI        CLOUDY    30  28  95 S10G16    29.73F FOG     WCI  21
PARK RAPIDS    CLOUDY    31  29  92 S12       29.73F FOG     WCI  22
ELBOW LAKE     CLOUDY    31  30  97 SE14      29.72F FOG     WCI  20
WADENA         CLOUDY    28  28 100 SE7       29.74F FOG     WCI  21
DETROIT LAKES  CLOUDY    32  30  93 S14       29.71F FOG     WCI  22
MOORHEAD       CLOUDY    32  32 100 S20       29.71F FOG     WCI  20
FERGUS FALLS   CLOUDY    30  30 100 SE14      29.74F FOG     WCI  20
MORRIS MN      CLOUDY    34  30  86 S17       29.71F FOG     WCI  23
STAPLES        CLOUDY    30  30 100 SE8       29.76F FOG     WCI  23
$$
  *****  WEATHER ELSEWHERE ACROSS MINNESOTA  *****

CITY           SKY/WX    TMP DP  RH WIND       PRES   REMARKS
DULUTH         FOG       31  28  89 SE12      29.85S VSB 3/4 WCI  22
INTRNTL FALLS  CLOUDY    30  28  92 VRB7      29.77F FOG     WCI  23
ELY            CLOUDY    28  27  93 S12G18    29.83F WCI  18
CLOQUET        FOG       30  30 100 SE5       29.84F VSB 1
WHEATON        CLOUDY    30  28  93 SE15      29.73F FOG     WCI  19
BRAINERD       CLOUDY    32  31  96 S7        29.78F FOG
HIBBING        CLOUDY    31  27  85 S9        29.81F FOG     WCI  23
ALEXANDRIA     CLOUDY    31  30  96 S16       29.73F FOG     WCI  20
SAINT CLOUD    FOG       35  32  88 SE14      29.80F VSB 3/4
MINNEAPOLIS    LGT SNOW  34  33  96 SE9       29.85F FOG
$$

  *****  WEATHER ACROSS SOUTH DAKOTA  *****

CITY           SKY/WX    TMP DP  RH WIND       PRES   REMARKS
SIOUX FALLS    FOG       33  33 100 S17       29.73F VSB 1/2 WCI  22
BROOKINGS      NOT AVBL
WATERTOWN      FOG       31  30  96 S14       29.66F VSB 1/2 WCI  21
HURON          CLOUDY    31  30  96 SE12      29.66F FOG     WCI  22
SISSETON         N/A     32  30  92 S15       29.68F WCI  22
ABERDEEN       CLOUDY    32  30  92 S15       29.65F FOG     WCI  22
MITCHELL       CLOUDY    32  31  96 S16       29.67F FOG     WCI  21
PIERRE         SUNNY     28  25  88 SE8       29.55F WCI  20
MOBRIDGE       SUNNY     33  27  78 SE13      29.52F WCI  24
RAPID CITY     SUNNY     32  27  81 SW6       29.47F
$$

  *****  SOME WEATHER IN NEARBY STATES *****

CITY           SKY/WX    TMP DP  RH WIND       PRES   REMARKS
GLASGOW MT     CLOUDY    29  24  82 SE8       29.35R WCI  21
GREAT FALLS MT PTSUNNY   44  31  60 W22G32    29.36R
CHEYENNE WY    PTSUNNY   42  21  43 W25G35    29.61F
SCOTTSBLUFF NE MOSUNNY   40  27  59 SW3       29.59F
OMAHA NE       CLOUDY    41  38  89 S20       29.85F
DES MOINES IA  CLOUDY    40  34  79 S17G28    29.94F
DAVENPORT IA   CLOUDY    39  32  76 S14       30.08F
CHICAGO IL     CLOUDY    34  28  79 S13       30.17F WCI  25
EAU CLAIRE WI  LGT SNOW  33  31  92 SE13      29.93F FOG     WCI  24
LA CROSSE WI   CLOUDY    37  34  89 S9        29.98F FOG
$$

  *****  SOME NATIONAL WEATHER *****

CITY           SKY/WX    TMP DP  RH WIND       PRES   REMARKS
LA GUARDIA NY  CLOUDY    33  27  78 N7        30.30F
RALEIGH NC     CLOUDY    44  35  70 E3        30.30F
ATLANTA GA     CLOUDY    48  44  86 E10       30.18F FOG
NEW ORLEANS LA CLOUDY    56  49  77 CALM      30.12S
OKLAHOMA CITY  CLOUDY    47  42  83 S17G24    29.94F
ALBUQUERQUE NM PTSUNNY   37  28  70 W5        30.06S
SALT LAKE CITY RAIN      39  37  92 SE13      29.99R
LOS ANGELES CA CLOUDY    55  48  77 E7        30.15R
BOISE ID       LGT RAIN  44  42  93 CALM      29.88R FOG
SEATTLE WA     CLOUDY    51  46  83 SW9       29.89R
$$

*** WEATHER ACROSS MANITOBA...SASKATCHEWAN AND ONTARIO ***
                ***ONTARIO***

CITY           SKY/WX    TMP DP  RH WIND       PRES   REMARKS
GERALDTON      CLOUDY    32  28  86 S8        29.98F WCI  25
THUNDER BAY    NOT AVBL
SIOUX LOOKOUT  LGT SNOW  28  27  93 S9        29.79F FOG     WCI  20
TORONTO        PTSUNNY   34  21  60 CALM      30.30F
BIG TROUT LK   FLURRIES  28  27  93 S10       29.83F WCI  19
PICKLE LAKE    LGT SNOW  28  27  93 S8        29.82F WCI  20
DRYDEN         FLURRIES  28  27  93 S10       29.76F WCI  19
KENORA         LGT SNOW  28  27  93 SE13      29.71F DRFTSNOWWCI  18
$$
                *** MANITOBA***

CITY           SKY/WX    TMP DP  RH WIND       PRES   REMARKS
BRANDON        FOG       27  27 100 SE6       29.57S VSB 1/8 WCI  20
DAUPHIN        CLOUDY    27  25  93 VRB2      29.56S
ISLAND LAKE    DRIZZLE   27  27 100 SE7       29.70F WCI  19
PILOT MOUND      N/A     21  19  93 CALM        N/A
THE PAS        FLURRIES  21  21 100 SE7       29.59R WCI  13
THOMPSON       NOT AVBL
WINNIPEG       NOT AVBL
LYNN LAKE      LGT SNOW  12  10  92 E6        29.63S WCI   3
CHURCHILL      LGT SNOW  16  12  86 W6        29.75S WCI   7
GILLAM         FRZ DRZL  21  19  93 S3        29.74F
$$
                ***SASKATCHEWAN***

CITY           SKY/WX    TMP DP  RH WIND       PRES   REMARKS
ESTEVAN        MOSUNNY   23  21  93 E8        29.44F WCI  14
KINDERSLEY     CLOUDY    23  19  86 E8        29.27R WCI  14
LLOYDMINSTER   SNOW      16  14  93 E10       29.34R VSB 3/8 WCI   3
PRINCE ALBERT  FOG       23  21  93 E8        29.46S VSB 1   WCI  14
REGINA         MOSUNNY   18  16  93 SE14      29.40  WCI   4
YORKTON        FOG       28  27  93 SE9       29.48F VSB 3/8 WCI  20
N. BATTLEFORD  FOG       19  19 100 E16G23    29.39R VSB 3/4 WCI   5
LA RONGE       CLOUDY    16  14  93 NE5       29.55R WCI   9
SASKATOON      CLOUDY    21  21 100 E8        29.41R FOG     WCI  12
SWIFT CURRENT  SUNNY     27  21  80 S13       29.26S WCI  16
$$
NOTE: THESE ARE AUTOMATED STATIONS WITH LIMITED QUALITY CONTROL
      "FAIR" INDICATES FEW OR NO CLOUDS BELOW 12,000 FEET WITH NO
      SIGNIFICANT WEATHER AND/OR OBSTRUCTIONS TO VISIBILITY.
      SKY/WX - SKY CONDITION AND SIGNIFICANT WEATHER.
      TMP - AIR TEMPERATURE.    DP   - DEWPOINT TEMPERATURE.
      RH  - RELATIVE HUMIDITY.  PRES - PRESSURE.
      HX  - HEAT INDEX.         WCI  - WIND CHILL INDEX.
$



USA.gov is the U.S. government's official web portal to all federal, state and local government web resources and services.